Temp
79 81 81 82 81 82 79 78 79 79 79 79 81 81 81 81 81 80 78 78 77 77 78 79 79 78 78 77 77 77 76 76 75 75 74 74 74 74 75 75 74 74 73
79 81 80 80 80 81 82 81 80 79 79 80 79 79 79 80 80 79 79 77 76 76 77 78 78 79 79 78 77 77 76 76 75 75 74 74 74 74 75 75 74 74 73
81 80 80 79 80 80 81 81 81 80 78 80 78 79 79 78 78 78 78 78 77 75 75 76 77 78 78 78 78 77 76 75 75 75 74 74 73 73 74 75 75 74 73
81 81 80 79 80 80 79 79 78 77 76 76 75 77 77 77 79 78 78 78 77 79 76 75 76 77 77 78 78 78 77 75 75 74 74 74 73 73 73 74 74 74 73
82 79 79 78 80 79 78 78 77 77 75 76 77 77 77 77 79 82 78 77 77 77 77 77 75 75 76 77 78 78 77 75 75 74 74 74 74 73 73 73 74 74 73
81 79 79 79 79 77 77 77 76 76 75 76 81 80 76 77 78 77 78 80 77 78 79 78 74 74 74 76 76 78 78 77 75 75 74 73 73 73 73 73 73 73 73
80 79 79 78 77 76 75 75 76 74 76 77 74 75 76 77 77 77 77 77 77 78 79 78 77 75 75 74 75 76 78 78 77 75 73 72 72 73 73 73 73 73 73
79 80 78 77 75 76 74 74 75 75 76 77 74 73 70 73 77 77 76 77 77 77 78 79 77 77 73 72 73 74 76 77 78 76 73 71 72 73 73 72 73 72 72
78 77 76 76 75 75 76 75 75 74 73 77 77 73 69 67 70 73 74 75 76 75 75 76 77 77 75 73 74 75 74 74 76 76 74 72 72 73 73 73 72 72 72
78 78 76 75 74 76 75 77 78 76 75 74 77 79 76 74 68 67 72 73 76 75 74 74 75 75 75 74 76 75 73 71 74 75 75 74 73 73 73 73 72 72 72
76 77 77 74 73 75 75 77 79 76 78 76 77 75 74 73 73 70 67 70 72 75 74 73 75 74 75 74 73 73 70 71 71 72 73 73 74 73 73 73 73 72 72
67 70 75 72 72 73 76 77 77 78 77 77 78 77 74 72 72 71 69 69 70 71 73 73 73 73 74 74 76 70 69 68 67 68 69 71 72 72 73 73 73 73 73
68 68 71 67 67 72 73 71 67 74 78 77 77 76 75 74 75 74 72 70 68 69 69 74 72 73 74 72 71 71 69 66 66 65 65 66 68 69 71 72 72 73 73
68 70 72 70 71 74 72 73 73 78 79 78 76 76 75 75 75 75 73 69 66 66 68 69 73 72 72 72 68 69 69 65 64 64 63 64 64 66 67 68 69 70 70
77 75 75 71 72 74 77 76 80 79 79 77 76 75 76 75 76 76 74 73 69 63 64 68 66 72 71 72 68 71 70 65 64 63 62 62 62 63 64 65 65 65 66
74 76 76 78 79 79 80 80 79 79 77 77 77 75 75 75 76 75 73 72 72 66 64 67 67 69 71 72 70 69 68 64 64 63 62 62 61 61 62 62 63 63 64
74 76 77 78 80 79 80 79 78 78 77 76 76 75 75 74 75 74 74 73 70 69 65 66 67 68 67 68 68 69 68 68 63 63 63 61 60 60 60 60 61 61 62
76 77 78 79 80 80 79 78 78 80 78 75 76 75 75 77 74 74 72 71 70 70 67 65 66 65 66 67 66 66 68 69 66 61 60 58 57 56 57 57 57 57 58
76 77 79 79 81 81 80 79 79 78 78 77 76 76 75 75 73 72 71 70 70 69 68 66 64 66 64 65 64 65 65 65 64 60 58 57 56 56 55 55 55 55 55
75 77 78 80 81 82 82 80 79 77 77 78 77 77 77 75 73 71 71 70 70 70 69 65 64 64 63 63 63 62 61 64 62 65 60 59 59 56 55 55 56 56 54
76 78 78 80 80 81 84 79 79 78 77 77 77 78 76 74 70 71 70 70 70 69 66 64 63 63 62 60 59 62 61 62 62 64 63 63 61 60 58 57 59 57 54
74 76 78 79 78 83 68 64 74 78 77 76 75 75 71 65 64 61 60 60 68 68 66 64 63 62 62 61 63 61 61 61 57 64 62 60 63 62 60 61 57 52 52
72 73 75 77 77 78 55 58 63 77 76 75 74 73 73 76 68 68 58 59 58 58 63 66 64 64 63 64 64 62 63 61 61 61 62 58 61 60 62 60 52 50 51
71 72 75 76 76 75 53 54 60 76 75 75 74 73 72 71 71 71 68 68 68 67 66 70 67 67 67 66 65 65 64 63 63 63 64 56 60 59 60 59 51 50 49
71 73 75 76 75 66 50 53 68 75 74 73 74 74 72 71 59 55 70 68 67 63 54 53 55 54 55 57 60 64 62 61 60 61 64 60 59 58 59 59 57 50 49
71 74 73 76 65 67 48 53 67 76 71 72 71 66 56 69 48 49 69 67 65 64 66 64 63 57 59 57 54 64 63 60 60 59 64 61 59 59 57 61 59 56 54
MSLP
1011.33 1011.30 1011.58 1011.76 1012.05 1011.95 1012.21 1012.53 1012.51 1012.57 1012.67 1012.46 1012.21 1012.35 1012.39 1012.22 1012.12 1012.01 1012.07 1012.37 1012.67 1012.83 1012.90 1013.08 1013.36 1013.64 1013.97 1014.26 1014.48 1014.67 1014.86 1015.12 1015.34 1015.60 1015.88 1016.18 1016.36 1016.61 1016.82 1017.19 1017.44 1017.72 1017.99
1010.97 1011.03 1011.43 1011.61 1011.40 1011.30 1011.19 1011.52 1011.70 1011.80 1012.07 1012.02 1011.91 1011.75 1011.90 1011.87 1011.88 1011.84 1011.81 1011.95 1012.15 1012.39 1012.58 1012.65 1012.74 1013.14 1013.47 1013.75 1014.01 1014.28 1014.49 1014.79 1015.04 1015.24 1015.56 1015.84 1016.06 1016.32 1016.48 1016.76 1017.15 1017.41 1017.76
1010.12 1010.71 1010.84 1011.10 1011.11 1010.97 1010.75 1010.75 1011.03 1011.39 1011.57 1011.79 1011.66 1011.46 1011.51 1011.44 1011.53 1011.57 1011.62 1011.66 1011.77 1011.99 1012.14 1012.24 1012.27 1012.57 1012.83 1013.16 1013.53 1013.83 1014.07 1014.36 1014.67 1014.89 1015.11 1015.38 1015.65 1015.93 1016.19 1016.40 1016.73 1017.02 1017.35
1009.66 1010.28 1010.55 1010.55 1010.36 1010.43 1010.82 1011.04 1011.12 1011.25 1011.51 1011.54 1011.60 1011.15 1010.99 1011.13 1011.04 1010.85 1011.04 1011.09 1011.27 1011.35 1011.66 1011.79 1011.88 1012.03 1012.33 1012.61 1012.99 1013.16 1013.48 1013.78 1014.12 1014.38 1014.66 1014.98 1015.21 1015.48 1015.77 1016.02 1016.28 1016.59 1016.95
1009.24 1009.98 1010.38 1010.44 1010.30 1010.42 1010.66 1011.07 1011.28 1011.45 1011.55 1011.56 1011.24 1010.75 1010.55 1010.55 1010.43 1010.15 1010.46 1010.42 1010.65 1010.76 1010.93 1011.08 1011.35 1011.65 1011.83 1012.13 1012.33 1012.59 1012.91 1013.25 1013.62 1013.93 1014.22 1014.47 1014.79 1015.07 1015.35 1015.59 1015.85 1016.18 1016.58
1008.76 1009.62 1010.02 1010.38 1010.21 1010.37 1010.58 1010.89 1011.11 1011.24 1011.54 1011.14 1010.66 1010.55 1010.13 1009.91 1009.79 1009.68 1009.78 1009.72 1009.91 1010.03 1010.19 1010.49 1010.75 1011.23 1011.49 1011.70 1011.95 1012.08 1012.15 1012.53 1013.01 1013.32 1013.67 1013.99 1014.29 1014.62 1014.95 1015.17 1015.45 1015.72 1016.12
1008.35 1009.24 1009.47 1010.16 1010.25 1010.39 1010.48 1010.68 1010.91 1010.81 1011.00 1010.83 1010.65 1010.22 1009.83 1009.24 1009.20 1009.18 1009.21 1009.45 1009.51 1009.39 1009.49 1009.88 1010.18 1010.47 1010.76 1011.06 1011.41 1011.62 1011.75 1012.03 1012.36 1012.65 1013.11 1013.53 1013.84 1014.14 1014.44 1014.74 1014.98 1015.32 1015.66
1008.09 1008.46 1009.14 1009.72 1010.04 1010.51 1010.08 1010.52 1010.43 1009.96 1010.16 1010.47 1010.16 1010.02 1009.57 1008.89 1008.51 1008.65 1008.97 1009.19 1009.18 1009.14 1009.24 1009.05 1009.55 1009.97 1010.37 1010.76 1011.16 1011.30 1011.47 1011.66 1011.78 1012.08 1012.51 1012.95 1013.36 1013.64 1013.98 1014.23 1014.51 1014.85 1015.17
1008.03 1007.53 1008.79 1009.07 1009.76 1010.42 1010.17 1010.49 1009.73 1009.06 1008.88 1009.17 1009.42 1009.22 1008.91 1008.75 1008.82 1008.65 1008.84 1008.99 1008.88 1008.76 1008.86 1009.15 1009.09 1009.52 1009.82 1010.21 1010.54 1010.86 1011.07 1011.19 1011.36 1011.60 1011.94 1012.46 1012.87 1013.21 1013.49 1013.78 1014.04 1014.43 1014.72
1007.86 1007.91 1007.98 1008.65 1009.46 1009.31 1009.55 1009.32 1009.19 1008.50 1008.06 1008.30 1008.58 1008.13 1008.18 1008.59 1009.26 1009.20 1008.91 1008.80 1008.65 1008.69 1008.67 1008.90 1008.86 1008.89 1009.23 1009.73 1009.96 1010.14 1010.35 1010.66 1010.79 1011.07 1011.48 1011.94 1012.25 1012.66 1012.98 1013.23 1013.57 1013.95 1014.29
1007.54 1008.50 1007.92 1008.47 1008.65 1008.97 1008.94 1008.15 1008.55 1008.13 1007.17 1007.43 1007.91 1007.69 1007.88 1008.22 1008.86 1009.32 1008.87 1008.48 1008.65 1008.53 1008.40 1008.61 1008.65 1008.75 1008.65 1009.10 1009.50 1009.62 1009.86 1010.14 1010.52 1010.77 1010.98 1011.41 1011.71 1012.13 1012.40 1012.75 1013.07 1013.41 1013.89
1007.87 1008.23 1007.97 1008.33 1007.48 1008.77 1007.80 1008.66 1009.04 1007.82 1006.67 1006.84 1007.17 1007.22 1007.10 1007.36 1007.82 1008.23 1008.28 1008.20 1008.28 1008.08 1008.13 1008.29 1008.35 1008.53 1008.40 1008.61 1009.08 1009.07 1009.49 1009.92 1010.18 1010.56 1010.84 1011.03 1011.28 1011.62 1011.92 1012.20 1012.55 1012.89 1013.30
1006.04 1005.60 1006.59 1005.97 1008.12 1007.66 1006.50 1007.26 1007.62 1007.31 1006.27 1006.38 1006.30 1006.31 1006.43 1006.45 1006.51 1006.91 1007.34 1007.61 1008.00 1008.05 1008.24 1008.23 1008.38 1008.34 1008.30 1008.59 1008.97 1009.48 1009.65 1009.82 1010.03 1010.21 1010.45 1010.71 1010.96 1011.23 1011.52 1011.78 1012.07 1012.45 1012.84
1004.62 1004.62 1005.72 1004.67 1006.67 1006.82 1005.95 1006.58 1007.64 1006.29 1005.51 1005.65 1005.44 1005.79 1005.78 1005.91 1006.12 1006.18 1006.71 1007.29 1007.93 1008.08 1008.26 1008.31 1008.09 1008.15 1008.23 1008.45 1009.10 1009.39 1009.52 1009.71 1009.78 1009.95 1010.17 1010.45 1010.80 1011.08 1011.28 1011.52 1011.82 1012.09 1012.48
1004.28 1004.54 1004.59 1004.52 1005.46 1006.01 1004.35 1004.99 1005.62 1004.85 1004.71 1004.62 1004.61 1005.37 1005.35 1005.47 1005.97 1005.67 1006.25 1006.85 1007.44 1007.99 1008.14 1008.21 1008.47 1008.29 1008.49 1008.49 1008.88 1008.90 1009.19 1009.51 1009.84 1009.95 1010.14 1010.35 1010.62 1010.84 1011.11 1011.40 1011.65 1011.90 1012.18
1003.73 1003.26 1001.98 1002.56 1003.12 1003.19 1003.22 1003.49 1003.83 1003.72 1004.31 1004.16 1004.17 1004.55 1004.91 1005.20 1005.54 1005.46 1006.00 1006.47 1007.04 1007.64 1008.08 1008.09 1008.27 1008.42 1008.72 1008.88 1009.09 1009.07 1009.18 1009.59 1009.73 1009.84 1010.04 1010.27 1010.41 1010.68 1010.95 1011.27 1011.52 1011.78 1012.05
1003.26 1002.69 1001.64 1002.08 1002.19 1002.33 1002.49 1002.78 1002.86 1003.26 1003.46 1003.83 1003.56 1003.94 1004.46 1004.86 1005.20 1005.34 1005.74 1006.15 1006.74 1007.14 1007.73 1008.08 1008.40 1008.73 1009.01 1009.18 1009.29 1009.04 1009.15 1009.31 1009.65 1009.83 1009.97 1010.11 1010.34 1010.56 1010.78 1011.13 1011.42 1011.67 1011.89
1002.23 1001.84 1001.63 1001.91 1001.63 1001.64 1001.80 1001.99 1002.39 1002.34 1002.62 1003.06 1003.26 1003.48 1004.05 1004.32 1004.83 1005.17 1005.63 1005.98 1006.60 1006.94 1007.41 1008.06 1008.53 1008.96 1009.19 1009.27 1009.42 1009.29 1009.32 1009.23 1009.36 1009.94 1010.09 1010.24 1010.43 1010.63 1010.77 1011.04 1011.31 1011.53 1011.75
1001.28 1001.04 1000.90 1001.00 1000.89 1000.71 1001.00 1001.38 1001.39 1001.85 1001.93 1002.31 1002.60 1002.99 1003.41 1003.83 1004.50 1005.05 1005.50 1005.99 1006.44 1006.67 1006.99 1007.47 1008.36 1008.64 1009.12 1009.31 1009.49 1009.41 1009.50 1009.73 1009.79 1010.12 1010.23 1010.41 1010.55 1010.82 1011.04 1011.21 1011.44 1011.71 1011.97
1000.60 1000.30 1000.09 1000.13 999.92 1000.11 1000.09 1000.31 1000.61 1001.26 1001.34 1001.54 1001.82 1002.48 1002.89 1003.31 1004.14 1004.77 1005.34 1005.85 1006.16 1006.33 1006.53 1007.26 1007.94 1008.49 1008.90 1009.52 1009.53 1009.64 1009.73 1009.68 1009.99 1010.06 1010.24 1010.47 1010.64 1010.97 1011.16 1011.37 1011.60 1011.86 1012.09
999.40 999.35 999.18 999.02 999.01 998.90 998.66 999.17 999.87 1000.47 1000.73 1001.01 1001.48 1002.07 1002.43 1002.91 1003.66 1004.39 1005.12 1005.57 1005.70 1005.96 1006.53 1007.34 1007.90 1008.41 1008.91 1009.37 1009.53 1009.60 1009.72 1009.90 1010.07 1010.06 1010.29 1010.61 1010.79 1011.07 1011.45 1011.47 1011.58 1011.86 1012.25
998.70 998.38 998.10 997.92 997.88 997.71 997.69 998.32 999.07 999.59 1000.17 1000.70 1001.46 1002.03 1002.57 1003.18 1003.82 1004.31 1004.99 1005.22 1005.16 1005.71 1006.44 1007.12 1007.73 1008.18 1008.44 1008.74 1009.08 1009.41 1009.66 1010.04 1010.35 1010.07 1010.44 1010.82 1010.73 1011.19 1011.41 1011.41 1011.53 1011.75 1012.27
997.87 997.61 997.52 997.25 997.29 997.30 997.71 998.04 998.36 998.86 999.73 1000.57 1001.31 1001.95 1002.72 1003.08 1003.84 1004.62 1005.25 1005.33 1005.70 1005.98 1006.25 1006.90 1007.41 1007.66 1007.91 1008.27 1008.76 1009.06 1009.28 1009.56 1009.65 1009.94 1010.28 1010.99 1011.13 1011.33 1011.33 1011.48 1011.68 1011.99 1012.22
997.04 996.77 996.80 996.91 997.24 997.41 997.72 998.17 998.22 998.81 999.59 1000.52 1001.08 1001.87 1002.61 1002.98 1003.51 1004.16 1004.90 1005.38 1005.84 1006.19 1006.49 1006.77 1007.05 1007.22 1007.49 1007.91 1008.36 1008.72 1008.92 1009.32 1009.52 1009.88 1009.94 1010.75 1011.24 1011.53 1011.61 1011.64 1011.85 1012.08 1012.34
996.33 996.18 996.28 996.47 996.88 997.54 998.06 998.15 998.15 998.77 999.76 1000.61 1001.15 1002.05 1002.47 1002.98 1003.46 1003.93 1004.46 1005.22 1005.75 1006.32 1006.68 1006.82 1006.98 1007.22 1007.53 1007.98 1008.38 1008.77 1009.04 1009.36 1009.59 1009.66 1009.72 1010.26 1011.08 1011.45 1011.65 1011.82 1011.86 1012.10 1012.31
995.53 995.73 995.85 995.80 996.21 997.44 998.33 998.00 998.07 998.87 999.99 1000.96 1001.62 1002.42 1002.69 1002.67 1003.39 1003.98 1004.48 1005.13 1005.60 1006.20 1006.64 1007.10 1007.45 1007.63 1007.86 1008.15 1008.46 1008.66 1008.74 1009.02 1009.12 1009.30 1009.22 1009.83 1010.49 1010.93 1011.28 1011.28 1011.52 1011.86 1012.17
Wind_Speed
5 5 4 5 8 7 9 7 8 7 9 10 9 7 7 7 6 3 1 14 12 12 13 13 13 13 11 13 13 12 11 11 11 12 13 13 13 12 14 15 15 15 16
6 5 5 5 5 5 5 9 7 5 6 5 6 7 7 6 6 5 3 5 14 14 14 15 15 14 13 13 14 13 11 11 11 12 13 14 13 13 14 15 15 16 17
6 7 6 6 5 5 6 5 2 2 3 4 7 6 5 6 6 6 5 4 4 13 14 16 17 16 15 14 15 14 13 12 12 12 12 13 13 14 15 16 16 16 17
7 5 5 6 6 4 3 2 3 3 4 5 5 5 5 6 7 7 6 5 4 4 13 16 16 17 16 16 15 15 14 13 12 12 13 13 13 13 15 17 17 17 17
11 6 5 5 4 3 3 2 3 3 4 7 6 5 5 5 6 6 8 7 7 6 4 10 17 15 16 17 17 16 15 13 12 13 13 13 13 13 14 15 17 18 18
10 10 7 5 4 3 4 4 5 3 5 6 6 7 5 5 6 6 6 5 6 8 7 8 6 7 14 17 16 18 18 16 14 13 13 13 13 13 13 14 15 17 18
11 10 7 6 4 4 5 5 5 6 8 6 3 5 6 7 7 6 5 5 6 7 7 6 4 5 6 19 16 17 18 17 16 13 13 13 13 14 13 14 14 14 16
8 10 9 8 7 7 6 10 10 7 7 7 5 4 4 4 8 9 4 5 6 5 6 8 5 5 5 4 7 14 16 17 17 15 14 14 14 14 15 14 14 14 14
9 7 8 6 5 6 8 11 11 12 9 7 11 5 3 3 3 2 7 5 7 4 4 4 5 5 5 5 6 8 14 16 17 17 16 14 14 15 16 15 14 13 14
9 8 9 8 7 6 11 11 11 12 9 10 5 8 5 3 1 4 2 7 5 4 5 4 5 6 6 5 8 10 9 14 15 15 15 15 16 16 16 15 14 14 14
4 7 8 7 6 5 11 13 15 12 10 9 9 3 3 4 6 6 4 3 1 3 5 5 4 5 6 6 5 7 10 10 11 11 13 15 16 16 16 15 16 15 15
8 8 7 5 3 10 15 8 14 19 12 8 8 7 4 4 6 5 4 5 5 4 2 5 4 2 3 4 3 9 11 10 8 8 8 12 14 15 15 15 16 17 17
5 5 8 8 12 26 20 9 14 34 10 11 7 7 4 4 3 4 4 3 1 1 1 2 3 3 2 3 4 5 7 8 9 9 8 7 9 11 12 14 15 15 14
7 9 13 21 28 17 16 20 18 19 11 10 10 5 5 4 4 4 3 2 2 2 2 3 3 4 3 2 4 3 5 10 10 10 8 7 7 8 10 9 10 11 11
8 12 15 26 23 22 19 18 17 13 11 9 8 9 5 4 5 3 4 3 2 1 3 2 3 2 2 3 3 1 3 3 5 6 7 6 7 8 8 8 7 7 9
11 11 5 7 18 20 17 16 13 11 10 8 8 9 8 4 5 4 4 4 3 5 1 2 2 3 2 1 4 1 4 4 6 6 6 7 7 7 8 8 7 7 8
10 10 9 9 11 14 15 14 13 12 14 11 8 8 8 6 4 4 4 4 3 3 3 1 2 3 2 3 2 2 2 2 4 4 5 6 6 7 8 7 7 7 8
9 10 10 14 14 15 13 13 14 13 13 12 10 7 9 7 6 3 2 4 3 3 3 3 3 3 2 2 2 2 2 2 4 5 5 5 5 5 5 5 6 7 8
12 12 12 13 14 15 14 15 15 14 11 12 10 10 8 8 7 4 4 4 4 4 4 4 4 2 2 2 1 2 1 4 3 7 8 7 7 5 4 6 7 7 8
13 13 12 14 14 15 15 15 13 13 10 11 9 9 8 8 7 6 5 5 4 4 4 4 4 4 3 1 1 1 1 1 3 4 8 8 7 7 6 7 8 8 9
12 14 14 14 14 13 11 14 14 12 9 8 7 7 6 8 11 8 4 5 5 4 4 4 3 3 3 3 3 2 2 3 2 1 4 3 4 4 2 5 8 11 10
12 12 13 12 12 11 15 19 15 11 8 8 9 7 6 12 11 13 11 6 5 4 4 3 4 4 5 4 3 3 4 3 2 1 3 2 2 3 2 2 7 10 10
13 13 13 11 11 12 10 18 15 8 9 8 8 6 7 6 10 8 8 11 9 10 6 4 4 4 4 6 5 4 4 4 2 3 4 3 1 2 2 3 9 8 10
11 12 13 11 10 6 14 15 15 11 8 7 7 7 6 7 9 9 8 6 6 5 5 2 4 4 4 6 6 4 3 3 4 4 4 3 2 2 2 2 7 9 9
12 11 12 11 12 7 10 16 13 9 7 7 7 8 8 7 10 10 8 6 5 5 5 7 6 8 10 9 4 4 3 4 2 3 3 3 3 2 2 3 3 7 10
8 8 12 12 11 11 9 16 12 8 8 6 6 6 8 9 13 10 6 7 6 7 7 5 4 6 6 4 4 3 3 4 3 2 4 4 4 4 3 3 4 3 4
Wind_Direction
203 199 207 207 181 203 190 205 219 211 215 216 223 240 247 259 276 286 227 181 189 194 192 198 209 224 224 222 222 221 214 213 216 212 209 213 207 207 208 206 206 207 201
201 189 189 245 242 212 202 201 212 210 210 227 230 226 231 237 264 275 256 196 195 202 202 205 209 219 224 223 223 221 214 211 212 213 209 211 210 208 211 214 205 212 206
194 199 187 208 227 232 235 229 231 200 234 261 240 233 232 217 229 244 258 269 204 209 211 214 212 216 215 222 225 224 216 206 209 208 209 210 209 209 213 215 214 212 210
195 204 217 214 213 216 236 225 221 222 253 236 247 241 220 220 228 212 216 223 227 248 220 222 218 219 213 214 224 224 215 206 205 206 208 210 211 210 212 213 217 215 210
192 214 227 241 241 200 230 259 224 212 227 243 251 240 217 228 225 215 221 208 208 221 247 214 221 224 214 215 221 220 217 209 205 206 208 210 212 216 213 213 215 216 215
184 208 221 223 218 193 221 237 220 219 251 251 250 253 229 226 213 211 222 205 199 205 210 231 192 209 216 223 229 220 212 205 205 206 207 209 211 216 216 214 213 215 213
198 206 202 222 201 217 227 214 234 211 248 239 263 263 258 239 229 224 197 209 208 218 217 202 195 184 204 217 221 223 223 216 213 209 203 209 209 213 213 212 212 209 212
203 197 200 209 196 234 212 230 220 211 231 239 230 223 271 287 221 221 192 224 230 217 217 196 178 201 149 165 214 229 229 228 223 213 207 206 209 210 214 211 210 209 207
230 173 186 193 199 213 241 249 224 210 212 228 225 202 262 246 3 140 209 214 235 200 150 182 183 194 205 190 215 230 233 233 237 229 213 201 207 212 215 211 207 206 204
206 188 193 189 220 217 232 244 234 227 198 224 228 217 230 101 322 321 195 216 227 174 181 203 215 207 203 187 210 228 220 226 223 225 217 207 206 212 215 213 208 206 207
327 241 196 185 219 256 258 243 245 228 214 209 227 184 181 190 215 228 255 287 206 231 199 197 227 205 198 195 210 221 205 208 222 220 216 212 213 210 213 214 210 208 211
221 211 154 211 190 241 251 267 271 253 214 212 221 241 185 166 208 201 219 234 235 223 192 187 207 209 175 192 178 161 171 184 195 209 223 223 218 212 213 214 214 211 215
235 185 176 129 263 243 245 298 296 263 211 211 218 218 224 248 205 194 199 226 235 167 168 173 197 209 182 158 92 60 169 176 190 199 211 219 226 223 217 214 213 213 212
227 220 212 194 221 230 225 218 233 240 223 212 208 222 216 239 270 185 157 156 271 185 146 219 219 183 166 107 122 172 185 193 203 202 206 209 219 216 215 205 211 212 213
237 226 215 222 227 225 217 218 228 227 215 207 194 218 228 224 271 153 150 165 184 260 250 234 204 105 51 107 90 84 332 186 212 201 207 210 199 204 195 205 212 212 207
276 284 276 264 213 210 215 217 221 223 214 216 202 193 214 212 247 146 155 164 186 198 205 134 31 114 101 344 119 240 90 216 212 192 200 194 193 193 194 199 212 217 210
234 250 268 261 250 222 213 219 215 212 216 213 192 198 189 195 239 163 180 183 190 137 181 309 97 85 86 316 29 313 114 235 167 186 184 180 182 191 194 197 204 202 207
253 245 240 251 235 236 226 218 215 214 206 197 207 186 188 191 214 198 145 125 169 191 167 172 136 147 187 138 51 316 298 334 114 125 144 135 153 163 180 182 188 178 160
253 248 244 236 241 227 221 216 212 214 202 198 191 195 190 179 176 190 157 177 202 207 198 150 141 135 122 67 51 285 333 107 103 137 121 111 111 124 154 151 155 160 158
247 248 242 237 232 235 220 209 203 207 229 187 186 190 183 176 182 157 179 196 221 219 136 116 128 144 114 142 81 293 164 190 129 108 65 86 104 97 113 125 137 146 144
243 241 242 234 232 228 215 193 195 205 204 174 160 178 172 173 164 155 173 211 198 164 128 124 122 134 152 146 188 192 147 130 28 59 119 131 131 116 112 143 143 137 130
248 249 244 232 231 233 211 172 187 190 174 167 172 178 107 114 112 114 107 82 143 117 116 128 164 191 161 163 180 171 140 161 172 317 96 23 69 119 150 160 152 141 143
231 237 251 235 242 220 181 171 166 169 153 167 151 148 147 146 135 126 106 100 88 94 102 168 195 189 161 168 168 183 187 192 205 161 133 135 39 106 152 139 150 163 164
251 229 234 234 240 204 158 160 152 151 158 156 148 148 171 158 169 160 150 150 148 142 138 178 174 174 166 161 165 182 168 147 113 164 168 125 141 139 128 110 163 173 178
241 253 230 222 229 155 171 145 141 134 135 144 151 173 177 169 170 173 153 163 167 115 71 71 68 99 115 120 143 134 178 160 168 193 167 118 155 152 168 177 182 191 189
234 239 235 224 151 148 192 145 141 136 133 156 171 121 85 159 155 161 159 163 160 153 144 121 102 83 121 138 155 204 195 192 203 138 188 129 146 156 186 174 165 175 197